Time,TemperatureF,DewpointF,PressureIn,WindDirection,WindDirectionDegrees,WindSpeedMPH,WindSpeedGustMPH,Humidity,HourlyPrecipIn,Conditions,Clouds,dailyrainin,SoftwareType,DateUTC
2014-02-01 00:01:00,30.7,30.0,30.20,NW,326,1.0,1.0,97,0.00,,,0.00,WeatherCatV1.14B232,2014-02-01 05:01:00,
2014-02-01 00:06:00,30.6,29.9,30.20,NNW,327,0.0,1.0,97,0.00,,,0.00,WeatherCatV1.14B232,2014-02-01 05:06:00,
2014-02-01 00:11:00,30.5,29.5,30.20,NNW,327,0.0,0.0,96,0.00,,,0.00,WeatherCatV1.14B232,2014-02-01 05:11:00,
2014-02-01 00:16:00,30.4,29.4,30.20,NNW,327,0.0,0.0,96,0.00,,,0.00,WeatherCatV1.14B232,2014-02-01 05:16:00,
2014-02-01 00:21:00,30.4,29.7,30.21,NNW,327,0.0,1.0,97,0.00,,,0.00,WeatherCatV1.14B232,2014-02-01 05:21:00,
2014-02-01 00:26:00,30.2,29.2,30.21,NNW,327,3.0,3.0,96,0.00,,,0.00,WeatherCatV1.14B232,2014-02-01 05:26:00,
2014-02-01 00:30:00,30.2,29.2,30.21,NNW,330,1.0,2.0,96,0.00,,,0.00,WeatherCatV1.14B232,2014-02-01 05:30:00,
2014-02-01 00:35:00,30.1,29.1,30.21,NNW,328,0.0,1.0,96,0.00,,,0.00,WeatherCatV1.14B232,2014-02-01 05:35:00,
2014-02-01 00:40:00,30.0,29.3,30.21,NNW,328,0.0,0.0,97,0.00,,,0.00,WeatherCatV1.14B232,2014-02-01 05:40:00,
2014-02-01 00:45:00,30.0,29.3,30.21,NNW,328,0.0,0.0,97,0.00,,,0.00,WeatherCatV1.14B232,2014-02-01 05:45:00,
2014-02-01 00:50:00,30.1,29.4,30.20,NNW,334,0.0,0.0,97,0.00,,,0.00,WeatherCatV1.14B232,2014-02-01 05:50:00,
2014-02-01 00:55:00,30.0,29.3,30.21,NNW,334,0.0,0.0,97,0.00,,,0.00,WeatherCatV1.14B232,2014-02-01 05:55:00,
2014-02-01 01:00:00,29.9,29.2,30.21,NNW,334,0.0,0.0,97,0.00,,,0.00,WeatherCatV1.14B232,2014-02-01 06:00:00,
2014-02-01 01:05:00,29.7,28.7,30.21,NNW,334,0.0,0.0,96,0.00,,,0.00,WeatherCatV1.14B232,2014-02-01 06:05:00,
2014-02-01 01:10:00,29.6,28.6,30.21,NNW,334,0.0,0.0,96,0.00,,,0.00,WeatherCatV1.14B232,2014-02-01 06:10:00,
2014-02-01 01:14:00,29.6,28.9,30.21,NNW,334,0.0,0.0,97,0.00,,,0.00,WeatherCatV1.14B232,2014-02-01 06:14:00,
2014-02-01 01:19:00,29.8,29.1,30.21,NNW,334,0.0,0.0,97,0.00,,,0.00,WeatherCatV1.14B232,2014-02-01 06:19:00,
2014-02-01 01:24:00,30.0,29.3,30.21,NNW,334,0.0,0.0,97,0.00,,,0.00,WeatherCatV1.14B232,2014-02-01 06:24:00,
2014-02-01 01:29:00,30.0,29.3,30.21,NNW,333,1.0,1.0,97,0.00,,,0.00,WeatherCatV1.14B232,2014-02-01 06:29:00,
2014-02-01 01:34:00,30.0,29.3,30.21,NNW,329,1.0,1.0,97,0.00,,,0.00,WeatherCatV1.14B232,2014-02-01 06:34:00,
2014-02-01 01:39:00,30.0,29.3,30.20,NNW,329,1.0,1.0,97,0.00,,,0.00,WeatherCatV1.14B232,2014-02-01 06:39:00,
2014-02-01 01:44:00,29.8,29.1,30.20,NNW,329,2.0,2.0,97,0.00,,,0.00,WeatherCatV1.14B232,2014-02-01 06:44:00,
2014-02-01 01:49:00,29.7,29.0,30.20,NNW,328,1.0,1.0,97,0.00,,,0.00,WeatherCatV1.14B232,2014-02-01 06:49:00,
2014-02-01 01:54:00,29.6,28.9,30.20,NNW,336,2.0,2.0,97,0.00,,,0.00,WeatherCatV1.14B232,2014-02-01 06:54:00,
2014-02-01 01:59:00,29.4,28.7,30.20,NNW,328,0.0,1.0,97,0.00,,,0.00,WeatherCatV1.14B232,2014-02-01 06:59:00,
2014-02-01 02:04:00,29.4,28.7,30.20,NNW,328,0.0,0.0,97,0.00,,,0.00,WeatherCatV1.14B232,2014-02-01 07:04:00,
2014-02-01 02:09:00,29.3,28.6,30.20,NNW,328,0.0,0.0,97,0.00,,,0.00,WeatherCatV1.14B232,2014-02-01 07:09:00,
2014-02-01 02:14:00,29.4,28.7,30.20,NNW,329,1.0,1.0,97,0.00,,,0.00,WeatherCatV1.14B232,2014-02-01 07:14:00,
2014-02-01 02:19:00,29.5,28.8,30.19,NNW,332,1.0,1.0,97,0.00,,,0.00,WeatherCatV1.14B232,2014-02-01 07:19:00,
2014-02-01 02:24:00,29.3,28.6,30.19,NNW,330,1.0,2.0,97,0.00,,,0.00,WeatherCatV1.14B232,2014-02-01 07:24:00,
2014-02-01 02:29:00,29.3,28.6,30.19,NNW,330,0.0,0.0,97,0.00,,,0.00,WeatherCatV1.14B232,2014-02-01 07:29:00,
2014-02-01 02:34:00,29.2,28.5,30.20,NNW,330,0.0,0.0,97,0.00,,,0.00,WeatherCatV1.14B232,2014-02-01 07:34:00,
2014-02-01 02:39:00,29.1,28.4,30.20,NNW,330,0.0,0.0,97,0.00,,,0.00,WeatherCatV1.14B232,2014-02-01 07:39:00,
2014-02-01 02:44:00,29.2,28.5,30.20,NNW,330,0.0,1.0,97,0.00,,,0.00,WeatherCatV1.14B232,2014-02-01 07:44:00,
2014-02-01 02:49:00,29.4,28.7,30.20,NNW,330,0.0,0.0,97,0.00,,,0.00,WeatherCatV1.14B232,2014-02-01 07:49:00,
2014-02-01 02:54:00,29.4,28.7,30.20,NNW,328,0.0,0.0,97,0.00,,,0.00,WeatherCatV1.14B232,2014-02-01 07:54:00,
2014-02-01 02:59:00,29.3,28.6,30.19,NNW,328,0.0,0.0,97,0.00,,,0.00,WeatherCatV1.14B232,2014-02-01 07:59:00,
2014-02-01 03:04:00,29.4,28.7,30.19,NNW,328,0.0,0.0,97,0.00,,,0.00,WeatherCatV1.14B232,2014-02-01 08:04:00,
2014-02-01 03:09:00,29.6,28.9,30.19,NW,325,0.0,0.0,97,0.00,,,0.00,WeatherCatV1.14B232,2014-02-01 08:09:00,
2014-02-01 03:14:00,29.9,29.2,30.19,NW,326,0.0,0.0,97,0.00,,,0.00,WeatherCatV1.14B232,2014-02-01 08:14:00,
2014-02-01 03:19:00,30.4,29.7,30.19,NNW,329,0.0,0.0,97,0.00,,,0.00,WeatherCatV1.14B232,2014-02-01 08:19:00,
2014-02-01 03:24:00,30.5,29.8,30.20,NNW,328,0.0,0.0,97,0.00,,,0.00,WeatherCatV1.14B232,2014-02-01 08:24:00,
2014-02-01 03:29:00,30.5,29.8,30.20,NNE,30,0.0,0.0,97,0.00,,,0.00,WeatherCatV1.14B232,2014-02-01 08:29:00,
2014-02-01 03:33:00,30.9,30.2,30.20,North,352,1.0,2.0,97,0.00,,,0.00,WeatherCatV1.14B232,2014-02-01 08:33:00,
2014-02-01 03:38:00,31.1,30.4,30.20,North,353,0.0,0.0,97,0.00,,,0.00,WeatherCatV1.14B232,2014-02-01 08:38:00,
2014-02-01 03:43:00,31.1,30.4,30.20,NNE,21,0.0,0.0,97,0.00,,,0.00,WeatherCatV1.14B232,2014-02-01 08:43:00,
2014-02-01 03:48:00,31.2,30.5,30.20,NNE,15,1.0,1.0,97,0.00,,,0.00,WeatherCatV1.14B232,2014-02-01 08:48:00,
2014-02-01 03:53:00,31.1,30.4,30.20,NNE,15,1.0,1.0,97,0.00,,,0.00,WeatherCatV1.14B232,2014-02-01 08:53:00,
2014-02-01 03:58:00,31.0,30.2,30.20,NNW,342,0.0,0.0,97,0.00,,,0.00,WeatherCatV1.14B232,2014-02-01 08:58:00,
2014-02-01 04:03:00,31.0,30.2,30.20,NNW,335,0.0,0.0,97,0.00,,,0.00,WeatherCatV1.14B232,2014-02-01 09:03:00,
2014-02-01 04:08:00,30.9,30.2,30.20,NNW,332,0.0,0.0,97,0.00,,,0.00,WeatherCatV1.14B232,2014-02-01 09:08:00,
2014-02-01 04:13:00,30.8,30.1,30.20,NW,312,0.0,0.0,97,0.00,,,0.00,WeatherCatV1.14B232,2014-02-01 09:13:00,
2014-02-01 04:18:00,30.4,29.7,30.20,WNW,303,0.0,0.0,97,0.00,,,0.00,WeatherCatV1.14B232,2014-02-01 09:18:00,
2014-02-01 04:23:00,30.3,29.6,30.20,NW,321,0.0,1.0,97,0.00,,,0.00,WeatherCatV1.14B232,2014-02-01 09:23:00,
2014-02-01 04:28:00,30.0,29.3,30.20,NW,323,0.0,1.0,97,0.00,,,0.00,WeatherCatV1.14B232,2014-02-01 09:28:00,
2014-02-01 04:33:00,29.8,29.1,30.20,NW,325,0.0,0.0,97,0.00,,,0.00,WeatherCatV1.14B232,2014-02-01 09:33:00,
2014-02-01 04:38:00,29.8,29.1,30.20,NW,323,0.0,0.0,97,0.00,,,0.00,WeatherCatV1.14B232,2014-02-01 09:38:00,
2014-02-01 04:43:00,30.1,29.4,30.20,NNW,327,1.0,2.0,97,0.00,,,0.00,WeatherCatV1.14B232,2014-02-01 09:43:00,
2014-02-01 04:48:00,30.4,29.7,30.20,NNW,334,0.0,1.0,97,0.00,,,0.00,WeatherCatV1.14B232,2014-02-01 09:48:00,
2014-02-01 04:53:00,30.5,29.8,30.20,NNW,336,0.0,1.0,97,0.00,,,0.00,WeatherCatV1.14B232,2014-02-01 09:53:00,
2014-02-01 04:58:00,30.6,29.9,30.20,North,4,0.0,0.0,97,0.00,,,0.00,WeatherCatV1.14B232,2014-02-01 09:58:00,
2014-02-01 05:03:00,30.9,30.2,30.20,NNW,340,1.0,2.0,97,0.00,,,0.00,WeatherCatV1.14B232,2014-02-01 10:03:00,
2014-02-01 05:08:00,31.4,30.6,30.20,NW,321,1.0,3.0,97,0.00,,,0.00,WeatherCatV1.14B232,2014-02-01 10:08:00,
2014-02-01 05:13:00,31.3,30.5,30.20,NNW,348,0.0,1.0,97,0.00,,,0.00,WeatherCatV1.14B232,2014-02-01 10:13:00,
2014-02-01 05:18:00,31.2,30.5,30.21,NNW,347,0.0,1.0,97,0.00,,,0.00,WeatherCatV1.14B232,2014-02-01 10:18:00,
2014-02-01 05:23:00,31.2,30.5,30.21,NNW,347,0.0,0.0,97,0.00,,,0.00,WeatherCatV1.14B232,2014-02-01 10:23:00,
2014-02-01 05:28:00,31.3,30.5,30.21,NNW,343,0.0,0.0,97,0.00,,,0.00,WeatherCatV1.14B232,2014-02-01 10:28:00,
2014-02-01 05:33:00,31.4,30.6,30.22,NNW,333,0.0,0.0,97,0.00,,,0.00,WeatherCatV1.14B232,2014-02-01 10:33:00,
2014-02-01 05:38:00,31.3,30.5,30.22,NNW,333,0.0,0.0,97,0.00,,,0.00,WeatherCatV1.14B232,2014-02-01 10:38:00,
2014-02-01 05:43:00,31.2,30.5,30.22,NNW,333,0.0,0.0,97,0.00,,,0.00,WeatherCatV1.14B232,2014-02-01 10:43:00,
2014-02-01 05:48:00,31.2,30.5,30.23,NNW,333,0.0,0.0,97,0.00,,,0.00,WeatherCatV1.14B232,2014-02-01 10:48:00,
2014-02-01 05:53:00,31.1,30.4,30.23,NNW,333,0.0,0.0,97,0.00,,,0.00,WeatherCatV1.14B232,2014-02-01 10:53:00,
2014-02-01 05:58:00,31.0,30.2,30.23,NNW,333,0.0,0.0,97,0.00,,,0.00,WeatherCatV1.14B232,2014-02-01 10:58:00,
2014-02-01 06:03:00,31.0,30.2,30.23,NNW,332,0.0,0.0,97,0.00,,,0.00,WeatherCatV1.14B232,2014-02-01 11:03:00,
2014-02-01 06:08:00,30.9,30.2,30.23,NNW,333,0.0,0.0,97,0.00,,,0.00,WeatherCatV1.14B232,2014-02-01 11:08:00,
2014-02-01 06:13:00,30.7,30.0,30.23,NNW,337,1.0,1.0,97,0.00,,,0.00,WeatherCatV1.14B232,2014-02-01 11:13:00,
2014-02-01 06:18:00,30.6,29.9,30.23,NNW,329,1.0,1.0,97,0.00,,,0.00,WeatherCatV1.14B232,2014-02-01 11:18:00,
2014-02-01 06:23:00,30.6,29.9,30.23,NNW,335,1.0,2.0,97,0.00,,,0.00,WeatherCatV1.14B232,2014-02-01 11:23:00,
2014-02-01 06:28:00,30.5,29.8,30.22,NNW,343,2.0,2.0,97,0.00,,,0.00,WeatherCatV1.14B232,2014-02-01 11:28:00,
2014-02-01 06:33:00,30.6,29.9,30.22,NW,324,1.0,2.0,97,0.00,,,0.00,WeatherCatV1.14B232,2014-02-01 11:33:00,
2014-02-01 06:38:00,31.0,30.2,30.22,North,353,2.0,3.0,97,0.00,,,0.00,WeatherCatV1.14B232,2014-02-01 11:38:00,
2014-02-01 06:43:00,30.9,30.2,30.22,NNW,333,0.0,0.0,97,0.00,,,0.00,WeatherCatV1.14B232,2014-02-01 11:43:00,
2014-02-01 06:48:00,30.6,29.9,30.23,NNW,333,0.0,0.0,97,0.00,,,0.00,WeatherCatV1.14B232,2014-02-01 11:48:00,
2014-02-01 06:53:00,30.5,29.8,30.23,NNW,333,0.0,0.0,97,0.00,,,0.00,WeatherCatV1.14B232,2014-02-01 11:53:00,
2014-02-01 06:58:00,30.5,29.8,30.23,NNW,333,0.0,0.0,97,0.00,,,0.00,WeatherCatV1.14B232,2014-02-01 11:58:00,
2014-02-01 07:03:00,30.6,29.9,30.24,NNW,333,0.0,0.0,97,0.00,,,0.00,WeatherCatV1.14B232,2014-02-01 12:03:00,
2014-02-01 07:08:00,30.7,30.0,30.24,NNW,333,0.0,0.0,97,0.00,,,0.00,WeatherCatV1.14B232,2014-02-01 12:08:00,
2014-02-01 07:13:00,30.7,30.0,30.24,NNW,333,0.0,0.0,97,0.00,,,0.00,WeatherCatV1.14B232,2014-02-01 12:13:00,
2014-02-01 07:18:00,30.8,30.1,30.24,NNW,333,0.0,0.0,97,0.00,,,0.00,WeatherCatV1.14B232,2014-02-01 12:18:00,
2014-02-01 07:23:00,30.9,30.2,30.24,NNW,333,0.0,1.0,97,0.00,,,0.00,WeatherCatV1.14B232,2014-02-01 12:23:00,
2014-02-01 07:28:00,31.1,30.4,30.24,NNW,333,0.0,0.0,97,0.00,,,0.00,WeatherCatV1.14B232,2014-02-01 12:28:00,
2014-02-01 07:33:00,31.3,30.5,30.24,NNW,333,0.0,0.0,97,0.00,,,0.00,WeatherCatV1.14B232,2014-02-01 12:33:00,
2014-02-01 07:38:00,31.3,30.5,30.24,NNW,333,0.0,0.0,97,0.00,,,0.00,WeatherCatV1.14B232,2014-02-01 12:38:00,
2014-02-01 07:43:00,31.4,30.6,30.24,NNW,333,0.0,0.0,97,0.00,,,0.00,WeatherCatV1.14B232,2014-02-01 12:43:00,
2014-02-01 07:48:00,31.6,30.8,30.24,NNW,333,0.0,0.0,97,0.00,,,0.00,WeatherCatV1.14B232,2014-02-01 12:48:00,
2014-02-01 07:53:00,31.7,30.9,30.24,NNW,333,0.0,0.0,97,0.00,,,0.00,WeatherCatV1.14B232,2014-02-01 12:53:00,
2014-02-01 07:58:00,31.9,31.1,30.25,NNW,333,0.0,0.0,97,0.00,,,0.00,WeatherCatV1.14B232,2014-02-01 12:58:00,
2014-02-01 08:03:00,31.9,31.1,30.25,NNW,328,2.0,2.0,97,0.00,,,0.00,WeatherCatV1.14B232,2014-02-01 13:03:00,
2014-02-01 08:08:00,32.2,31.4,30.25,NW,323,0.0,1.0,97,0.00,,,0.00,WeatherCatV1.14B232,2014-02-01 13:08:00,
2014-02-01 08:13:00,32.4,31.6,30.25,NW,323,0.0,0.0,97,0.00,,,0.00,WeatherCatV1.14B232,2014-02-01 13:13:00,
2014-02-01 08:18:00,32.7,31.9,30.26,NW,323,0.0,0.0,97,0.00,,,0.00,WeatherCatV1.14B232,2014-02-01 13:18:00,
2014-02-01 08:23:00,33.1,32.3,30.26,NW,323,0.0,0.0,97,0.00,,,0.00,WeatherCatV1.14B232,2014-02-01 13:23:00,
2014-02-01 08:28:00,33.5,33.0,30.25,NNW,327,0.0,0.0,98,0.00,,,0.00,WeatherCatV1.14B232,2014-02-01 13:28:00,
2014-02-01 08:33:00,33.6,32.8,30.25,NNW,328,0.0,0.0,97,0.00,,,0.00,WeatherCatV1.14B232,2014-02-01 13:33:00,
2014-02-01 08:38:00,34.0,33.2,30.25,NNW,328,0.0,0.0,97,0.00,,,0.00,WeatherCatV1.14B232,2014-02-01 13:38:00,
2014-02-01 08:43:00,34.6,34.1,30.25,NW,321,0.0,0.0,98,0.00,,,0.00,WeatherCatV1.14B232,2014-02-01 13:43:00,
2014-02-01 08:48:00,34.9,34.4,30.25,NW,326,0.0,0.0,98,0.00,,,0.00,WeatherCatV1.14B232,2014-02-01 13:48:00,
2014-02-01 08:53:00,35.3,34.8,30.25,North,354,0.0,0.0,98,0.00,,,0.00,WeatherCatV1.14B232,2014-02-01 13:53:00,
2014-02-01 08:58:00,36.0,35.5,30.25,NNE,15,0.0,0.0,98,0.00,,,0.00,WeatherCatV1.14B232,2014-02-01 13:58:00,
2014-02-01 09:03:00,36.8,36.3,30.25,NE,42,0.0,0.0,98,0.00,,,0.00,WeatherCatV1.14B232,2014-02-01 14:03:00,
2014-02-01 09:08:00,37.4,36.6,30.25,NNE,30,0.0,0.0,97,0.00,,,0.00,WeatherCatV1.14B232,2014-02-01 14:08:00,
2014-02-01 09:13:00,37.9,37.1,30.25,NE,39,0.0,1.0,97,0.00,,,0.00,WeatherCatV1.14B232,2014-02-01 14:13:00,
2014-02-01 09:18:00,38.4,37.6,30.25,NNE,31,1.0,3.0,97,0.00,,,0.00,WeatherCatV1.14B232,2014-02-01 14:18:00,
2014-02-01 09:23:00,38.8,37.8,30.25,NE,37,1.0,3.0,96,0.00,,,0.00,WeatherCatV1.14B232,2014-02-01 14:23:00,
2014-02-01 09:28:00,39.6,38.6,30.24,NNE,17,1.0,2.0,96,0.00,,,0.00,WeatherCatV1.14B232,2014-02-01 14:28:00,
2014-02-01 09:33:00,40.1,38.8,30.24,ENE,59,2.0,3.0,95,0.00,,,0.00,WeatherCatV1.14B232,2014-02-01 14:33:00,
2014-02-01 09:38:00,40.9,39.3,30.24,NNE,32,2.0,4.0,94,0.00,,,0.00,WeatherCatV1.14B232,2014-02-01 14:38:00,
2014-02-01 09:43:00,41.4,39.3,30.25,North,359,3.0,4.0,92,0.00,,,0.00,WeatherCatV1.14B232,2014-02-01 14:43:00,
2014-02-01 09:48:00,41.7,39.3,30.25,NNE,24,3.0,4.0,91,0.00,,,0.01,WeatherCatV1.14B232,2014-02-01 14:48:00,
2014-02-01 09:53:00,42.2,39.5,30.25,North,355,3.0,3.0,90,0.00,,,0.01,WeatherCatV1.14B232,2014-02-01 14:53:00,
2014-02-01 09:54:00,42.3,39.3,30.25,NNE,14,3.0,3.0,89,0.00,,,0.01,WeatherCatV1.14B232,2014-02-01 14:54:00,
2014-02-01 09:59:00,42.7,40.0,30.25,NNE,23,1.0,3.0,90,0.00,,,0.01,WeatherCatV1.14B232,2014-02-01 14:59:00,
2014-02-01 10:04:00,43.1,39.5,30.26,NNW,338,0.0,1.0,87,0.00,,,0.01,WeatherCatV1.14B232,2014-02-01 15:04:00,
2014-02-01 10:09:00,43.5,39.9,30.25,NNW,338,0.0,1.0,87,0.00,,,0.01,WeatherCatV1.14B232,2014-02-01 15:09:00,
2014-02-01 10:14:00,43.9,40.3,30.25,SSE,148,0.0,1.0,87,0.00,,,0.01,WeatherCatV1.14B232,2014-02-01 15:14:00,
2014-02-01 10:19:00,44.5,40.0,30.25,ESE,117,1.0,3.0,84,0.00,,,0.01,WeatherCatV1.14B232,2014-02-01 15:19:00,
2014-02-01 10:24:00,44.7,39.2,30.25,ESE,103,2.0,3.0,81,0.00,,,0.01,WeatherCatV1.14B232,2014-02-01 15:24:00,
2014-02-01 10:29:00,44.7,39.2,30.25,ESE,117,0.0,1.0,81,0.00,,,0.01,WeatherCatV1.14B232,2014-02-01 15:29:00,
2014-02-01 10:34:00,44.5,39.4,30.25,ESE,107,0.0,2.0,82,0.00,,,0.01,WeatherCatV1.14B232,2014-02-01 15:34:00,
2014-02-01 10:39:00,44.4,39.6,30.25,SE,146,1.0,2.0,83,0.00,,,0.01,WeatherCatV1.14B232,2014-02-01 15:39:00,
2014-02-01 10:44:00,43.7,38.6,30.25,SE,141,2.0,3.0,82,0.00,,,0.01,WeatherCatV1.14B232,2014-02-01 15:44:00,
2014-02-01 10:49:00,43.0,38.2,30.25,SE,127,0.0,3.0,83,0.00,,,0.01,WeatherCatV1.14B232,2014-02-01 15:49:00,
2014-02-01 10:54:00,42.7,38.2,30.25,ENE,78,3.0,3.0,84,0.00,,,0.01,WeatherCatV1.14B232,2014-02-01 15:54:00,
2014-02-01 10:59:00,42.4,37.9,30.25,East,98,1.0,2.0,84,0.00,,,0.01,WeatherCatV1.14B232,2014-02-01 15:59:00,
2014-02-01 11:04:00,42.3,37.8,30.24,ESE,121,0.0,2.0,84,0.00,,,0.01,WeatherCatV1.14B232,2014-02-01 16:04:00,
2014-02-01 11:09:00,42.3,38.1,30.24,East,98,0.0,1.0,85,0.00,,,0.01,WeatherCatV1.14B232,2014-02-01 16:09:00,
2014-02-01 11:14:00,42.7,38.5,30.24,East,84,0.0,2.0,85,0.00,,,0.01,WeatherCatV1.14B232,2014-02-01 16:14:00,
2014-02-01 11:19:00,43.3,39.1,30.24,East,94,0.0,0.0,85,0.00,,,0.01,WeatherCatV1.14B232,2014-02-01 16:19:00,
2014-02-01 11:24:00,43.9,39.4,30.23,ENE,65,1.0,1.0,84,0.00,,,0.01,WeatherCatV1.14B232,2014-02-01 16:24:00,
2014-02-01 11:29:00,44.7,39.9,30.23,ENE,66,1.0,2.0,83,0.00,,,0.01,WeatherCatV1.14B232,2014-02-01 16:29:00,
2014-02-01 11:34:00,45.2,40.0,30.23,ENE,77,1.0,2.0,82,0.00,,,0.01,WeatherCatV1.14B232,2014-02-01 16:34:00,
2014-02-01 11:39:00,45.7,40.5,30.22,East,86,0.0,2.0,82,0.00,,,0.01,WeatherCatV1.14B232,2014-02-01 16:39:00,
2014-02-01 11:44:00,46.3,41.1,30.22,ESE,104,0.0,1.0,82,0.00,,,0.01,WeatherCatV1.14B232,2014-02-01 16:44:00,
2014-02-01 11:49:00,47.1,41.3,30.22,SE,139,0.0,2.0,80,0.00,,,0.01,WeatherCatV1.14B232,2014-02-01 16:49:00,
2014-02-01 11:54:00,47.5,41.6,30.22,SE,127,0.0,1.0,80,0.00,,,0.01,WeatherCatV1.14B232,2014-02-01 16:54:00,
2014-02-01 11:59:00,47.7,40.2,30.21,ESE,115,1.0,3.0,75,0.00,,,0.01,WeatherCatV1.14B232,2014-02-01 16:59:00,
2014-02-01 12:04:00,47.9,39.0,30.21,East,98,0.0,3.0,71,0.00,,,0.01,WeatherCatV1.14B232,2014-02-01 17:04:00,
2014-02-01 12:09:00,48.1,39.5,30.21,ESE,119,0.0,3.0,72,0.00,,,0.01,WeatherCatV1.14B232,2014-02-01 17:09:00,
2014-02-01 12:14:00,48.1,39.5,30.20,SE,131,0.0,1.0,72,0.00,,,0.01,WeatherCatV1.14B232,2014-02-01 17:14:00,
2014-02-01 12:19:00,48.4,40.5,30.20,SSE,148,1.0,2.0,74,0.00,,,0.01,WeatherCatV1.14B232,2014-02-01 17:19:00,
2014-02-01 12:24:00,47.9,40.4,30.20,SSE,152,1.0,2.0,75,0.00,,,0.01,WeatherCatV1.14B232,2014-02-01 17:24:00,
2014-02-01 12:29:00,47.1,39.9,30.19,SE,132,1.0,2.0,76,0.00,,,0.01,WeatherCatV1.14B232,2014-02-01 17:29:00,
2014-02-01 12:34:00,46.8,40.3,30.19,SSE,152,0.0,1.0,78,0.00,,,0.01,WeatherCatV1.14B232,2014-02-01 17:34:00,
2014-02-01 12:39:00,46.5,40.0,30.19,SE,136,0.0,2.0,78,0.00,,,0.01,WeatherCatV1.14B232,2014-02-01 17:39:00,
2014-02-01 12:44:00,46.5,40.0,30.18,SSE,153,1.0,1.0,78,0.00,,,0.01,WeatherCatV1.14B232,2014-02-01 17:44:00,
2014-02-01 12:49:00,46.8,40.6,30.18,SE,146,0.0,1.0,79,0.00,,,0.01,WeatherCatV1.14B232,2014-02-01 17:49:00,
2014-02-01 12:54:00,46.9,40.4,30.18,SSE,151,0.0,1.0,78,0.00,,,0.01,WeatherCatV1.14B232,2014-02-01 17:54:00,
2014-02-01 12:59:00,47.0,40.5,30.17,SSE,153,1.0,2.0,78,0.00,,,0.01,WeatherCatV1.14B232,2014-02-01 17:59:00,
2014-02-01 13:04:00,46.7,40.2,30.17,SSE,148,2.0,3.0,78,0.00,,,0.01,WeatherCatV1.14B232,2014-02-01 18:04:00,
2014-02-01 13:09:00,46.7,40.5,30.17,SE,127,2.0,4.0,79,0.00,,,0.01,WeatherCatV1.14B232,2014-02-01 18:09:00,
2014-02-01 13:14:00,46.5,40.0,30.17,East,80,2.0,2.0,78,0.00,,,0.01,WeatherCatV1.14B232,2014-02-01 18:14:00,
2014-02-01 13:19:00,46.6,40.4,30.17,ENE,75,2.0,2.0,79,0.00,,,0.01,WeatherCatV1.14B232,2014-02-01 18:19:00,
2014-02-01 13:24:00,46.8,40.3,30.17,ESE,122,1.0,1.0,78,0.00,,,0.01,WeatherCatV1.14B232,2014-02-01 18:24:00,
2014-02-01 13:29:00,47.1,40.6,30.16,SSE,158,1.0,2.0,78,0.00,,,0.01,WeatherCatV1.14B232,2014-02-01 18:29:00,
2014-02-01 13:34:00,46.9,40.4,30.16,SSE,150,1.0,2.0,78,0.00,,,0.01,WeatherCatV1.14B232,2014-02-01 18:34:00,
2014-02-01 13:39:00,46.7,40.2,30.16,SSE,153,1.0,2.0,78,0.00,,,0.01,WeatherCatV1.14B232,2014-02-01 18:39:00,
2014-02-01 13:44:00,46.5,40.0,30.16,SSE,150,1.0,1.0,78,0.00,,,0.01,WeatherCatV1.14B232,2014-02-01 18:44:00,
2014-02-01 13:49:00,46.6,40.4,30.15,SSE,151,0.0,1.0,79,0.00,,,0.01,WeatherCatV1.14B232,2014-02-01 18:49:00,
2014-02-01 13:54:00,47.1,41.3,30.15,SSE,159,0.0,0.0,80,0.00,,,0.01,WeatherCatV1.14B232,2014-02-01 18:54:00,
2014-02-01 13:59:00,47.9,42.4,30.15,SSE,151,0.0,1.0,81,0.00,,,0.01,WeatherCatV1.14B232,2014-02-01 18:59:00,
2014-02-01 14:04:00,48.7,42.5,30.14,SSE,150,0.0,1.0,79,0.00,,,0.01,WeatherCatV1.14B232,2014-02-01 19:04:00,
2014-02-01 14:09:00,48.9,42.0,30.14,SE,142,1.0,2.0,77,0.00,,,0.01,WeatherCatV1.14B232,2014-02-01 19:09:00,
2014-02-01 14:14:00,48.2,41.0,30.14,SSE,159,1.0,2.0,76,0.00,,,0.01,WeatherCatV1.14B232,2014-02-01 19:14:00,
2014-02-01 14:19:00,47.6,41.1,30.14,SSE,153,1.0,2.0,78,0.00,,,0.01,WeatherCatV1.14B232,2014-02-01 19:19:00,
2014-02-01 14:24:00,47.0,40.8,30.14,SE,137,1.0,1.0,79,0.00,,,0.01,WeatherCatV1.14B232,2014-02-01 19:24:00,
2014-02-01 14:29:00,46.6,40.8,30.14,SE,145,0.0,2.0,80,0.00,,,0.01,WeatherCatV1.14B232,2014-02-01 19:29:00,
2014-02-01 14:34:00,46.5,41.0,30.14,SE,145,0.0,0.0,81,0.00,,,0.01,WeatherCatV1.14B232,2014-02-01 19:34:00,
2014-02-01 14:39:00,46.7,41.5,30.13,South,174,0.0,1.0,82,0.00,,,0.01,WeatherCatV1.14B232,2014-02-01 19:39:00,
2014-02-01 14:44:00,47.1,41.9,30.13,South,174,0.0,0.0,82,0.00,,,0.01,WeatherCatV1.14B232,2014-02-01 19:44:00,
2014-02-01 14:49:00,47.7,42.5,30.13,South,174,0.0,0.0,82,0.00,,,0.01,WeatherCatV1.14B232,2014-02-01 19:49:00,
2014-02-01 14:54:00,48.5,42.9,30.13,SSE,168,0.0,0.0,81,0.00,,,0.01,WeatherCatV1.14B232,2014-02-01 19:54:00,
2014-02-01 14:59:00,49.2,43.3,30.13,SSE,165,0.0,0.0,80,0.00,,,0.01,WeatherCatV1.14B232,2014-02-01 19:59:00,
2014-02-01 15:04:00,49.5,43.6,30.13,SSE,165,0.0,0.0,80,0.00,,,0.01,WeatherCatV1.14B232,2014-02-01 20:04:00,
2014-02-01 15:09:00,49.3,43.4,30.13,SSE,165,1.0,1.0,80,0.00,,,0.01,WeatherCatV1.14B232,2014-02-01 20:09:00,
2014-02-01 15:14:00,48.8,42.9,30.13,South,175,1.0,1.0,80,0.00,,,0.01,WeatherCatV1.14B232,2014-02-01 20:14:00,
2014-02-01 15:19:00,48.3,43.1,30.14,SSW,213,1.0,1.0,82,0.00,,,0.01,WeatherCatV1.14B232,2014-02-01 20:19:00,
2014-02-01 15:24:00,48.1,43.2,30.13,SSW,196,0.0,1.0,83,0.00,,,0.01,WeatherCatV1.14B232,2014-02-01 20:24:00,
2014-02-01 15:29:00,48.1,43.5,30.13,SSE,159,1.0,1.0,84,0.00,,,0.01,WeatherCatV1.14B232,2014-02-01 20:29:00,
2014-02-01 15:34:00,47.6,42.7,30.13,South,170,1.0,1.0,83,0.00,,,0.01,WeatherCatV1.14B232,2014-02-01 20:34:00,
2014-02-01 15:39:00,46.9,42.3,30.13,SE,133,0.0,1.0,84,0.00,,,0.01,WeatherCatV1.14B232,2014-02-01 20:39:00,
2014-02-01 15:44:00,46.4,42.1,30.13,SSE,168,0.0,1.0,85,0.00,,,0.01,WeatherCatV1.14B232,2014-02-01 20:44:00,
2014-02-01 15:49:00,46.0,42.0,30.13,SSE,168,0.0,0.0,86,0.00,,,0.01,WeatherCatV1.14B232,2014-02-01 20:49:00,
2014-02-01 15:54:00,45.8,42.2,30.13,SSE,168,0.0,0.0,87,0.00,,,0.01,WeatherCatV1.14B232,2014-02-01 20:54:00,
2014-02-01 15:59:00,45.7,42.6,30.13,SSE,168,0.0,0.0,89,0.00,,,0.01,WeatherCatV1.14B232,2014-02-01 20:59:00,
2014-02-01 16:04:00,45.6,42.8,30.14,SSE,168,0.0,0.0,90,0.00,,,0.01,WeatherCatV1.14B232,2014-02-01 21:04:00,
2014-02-01 16:09:00,45.7,43.5,30.14,NNW,328,1.0,2.0,92,0.00,,,0.01,WeatherCatV1.14B232,2014-02-01 21:09:00,
2014-02-01 16:14:00,46.3,44.1,30.13,NNW,345,2.0,3.0,92,0.00,,,0.01,WeatherCatV1.14B232,2014-02-01 21:14:00,
2014-02-01 16:19:00,46.6,44.4,30.13,NNW,346,4.0,4.0,92,0.00,,,0.01,WeatherCatV1.14B232,2014-02-01 21:19:00,
2014-02-01 16:24:00,46.8,44.3,30.13,North,349,5.0,5.0,91,0.00,,,0.01,WeatherCatV1.14B232,2014-02-01 21:24:00,
2014-02-01 16:29:00,46.8,44.0,30.14,NNW,337,6.0,9.0,90,0.00,,,0.01,WeatherCatV1.14B232,2014-02-01 21:29:00,
2014-02-01 16:34:00,46.6,43.8,30.14,NNW,340,7.0,9.0,90,0.00,,,0.01,WeatherCatV1.14B232,2014-02-01 21:34:00,
2014-02-01 16:39:00,46.3,43.8,30.14,NNW,332,9.0,11.0,91,0.00,,,0.01,WeatherCatV1.14B232,2014-02-01 21:39:00,
2014-02-01 16:44:00,45.9,43.7,30.14,NW,326,7.0,9.0,92,0.00,,,0.02,WeatherCatV1.14B232,2014-02-01 21:44:00,
2014-02-01 16:49:00,45.6,43.7,30.14,NNW,332,6.0,10.0,93,0.00,,,0.02,WeatherCatV1.14B232,2014-02-01 21:49:00,
2014-02-01 16:54:00,45.3,43.4,30.14,North,349,6.0,8.0,93,0.00,,,0.02,WeatherCatV1.14B232,2014-02-01 21:54:00,
2014-02-01 16:59:00,45.1,43.5,30.14,North,359,5.0,7.0,94,0.00,,,0.02,WeatherCatV1.14B232,2014-02-01 21:59:00,
2014-02-01 17:04:00,44.8,43.2,30.14,NNE,15,5.0,8.0,94,0.00,,,0.02,WeatherCatV1.14B232,2014-02-01 22:04:00,
2014-02-01 17:09:00,44.7,43.1,30.14,NNW,337,5.0,7.0,94,0.00,,,0.02,WeatherCatV1.14B232,2014-02-01 22:09:00,
2014-02-01 17:14:00,44.6,43.3,30.13,North,352,5.0,8.0,95,0.00,,,0.02,WeatherCatV1.14B232,2014-02-01 22:14:00,
2014-02-01 17:19:00,44.5,43.2,30.13,North,8,6.0,7.0,95,0.00,,,0.02,WeatherCatV1.14B232,2014-02-01 22:19:00,
2014-02-01 17:24:00,44.3,43.0,30.13,NNW,327,5.0,8.0,95,0.00,,,0.03,WeatherCatV1.14B232,2014-02-01 22:24:00,
2014-02-01 17:29:00,44.2,42.9,30.13,North,350,4.0,8.0,95,0.00,,,0.03,WeatherCatV1.14B232,2014-02-01 22:29:00,
2014-02-01 17:34:00,44.1,42.8,30.13,North,8,5.0,8.0,95,0.00,,,0.03,WeatherCatV1.14B232,2014-02-01 22:34:00,
2014-02-01 17:39:00,44.0,42.7,30.12,North,3,4.0,8.0,95,0.00,,,0.03,WeatherCatV1.14B232,2014-02-01 22:39:00,
2014-02-01 17:44:00,43.9,42.8,30.12,North,9,4.0,10.0,96,0.00,,,0.03,WeatherCatV1.14B232,2014-02-01 22:44:00,
2014-02-01 17:49:00,43.9,42.8,30.12,NNE,30,6.0,7.0,96,0.00,,,0.03,WeatherCatV1.14B232,2014-02-01 22:49:00,
2014-02-01 17:54:00,43.9,42.8,30.12,NNE,25,3.0,4.0,96,0.00,,,0.03,WeatherCatV1.14B232,2014-02-01 22:54:00,
2014-02-01 17:59:00,43.9,42.8,30.12,NNE,33,3.0,4.0,96,0.00,,,0.03,WeatherCatV1.14B232,2014-02-01 22:59:00,
2014-02-01 18:04:00,44.0,42.9,30.12,NNE,29,2.0,3.0,96,0.00,,,0.03,WeatherCatV1.14B232,2014-02-01 23:04:00,
2014-02-01 18:09:00,44.0,42.9,30.12,NE,35,3.0,3.0,96,0.00,,,0.03,WeatherCatV1.14B232,2014-02-01 23:09:00,
2014-02-01 18:14:00,44.0,42.9,30.12,NE,51,3.0,3.0,96,0.00,,,0.03,WeatherCatV1.14B232,2014-02-01 23:14:00,
2014-02-01 18:19:00,44.1,43.0,30.12,NE,48,0.0,2.0,96,0.00,,,0.03,WeatherCatV1.14B232,2014-02-01 23:19:00,
2014-02-01 18:24:00,44.1,43.0,30.12,NE,40,1.0,2.0,96,0.00,,,0.03,WeatherCatV1.14B232,2014-02-01 23:24:00,
2014-02-01 18:29:00,44.1,43.0,30.11,NNE,27,1.0,2.0,96,0.00,,,0.03,WeatherCatV1.14B232,2014-02-01 23:29:00,
2014-02-01 18:34:00,44.1,43.0,30.12,NNE,32,0.0,0.0,96,0.00,,,0.03,WeatherCatV1.14B232,2014-02-01 23:34:00,
2014-02-01 18:39:00,44.2,43.1,30.11,NE,34,1.0,2.0,96,0.81,,,0.12,WeatherCatV1.14B232,2014-02-01 23:39:00,
2014-02-01 18:44:00,44.1,43.0,30.11,North,6,1.0,1.0,96,0.21,,,0.16,WeatherCatV1.14B232,2014-02-01 23:44:00,
2014-02-01 18:49:00,44.2,43.1,30.11,North,9,0.0,0.0,96,0.08,,,0.16,WeatherCatV1.14B232,2014-02-01 23:49:00,
2014-02-01 18:54:00,44.2,43.1,30.11,North,8,0.0,1.0,96,0.05,,,0.16,WeatherCatV1.14B232,2014-02-01 23:54:00,
2014-02-01 18:59:00,44.2,43.1,30.11,North,8,0.0,0.0,96,0.00,,,0.16,WeatherCatV1.14B232,2014-02-01 23:59:00,
2014-02-01 19:04:00,44.2,43.1,30.11,WSW,250,0.0,1.0,96,0.00,,,0.16,WeatherCatV1.14B232,2014-02-02 00:04:00,
2014-02-01 19:09:00,44.2,43.1,30.11,West,259,2.0,2.0,96,0.00,,,0.16,WeatherCatV1.14B232,2014-02-02 00:09:00,
2014-02-01 19:14:00,44.1,43.0,30.11,West,259,0.0,0.0,96,0.00,,,0.16,WeatherCatV1.14B232,2014-02-02 00:14:00,
2014-02-01 19:19:00,44.2,43.4,30.10,West,259,0.0,1.0,97,0.00,,,0.16,WeatherCatV1.14B232,2014-02-02 00:19:00,
2014-02-01 19:24:00,44.2,43.4,30.10,SSE,155,0.0,0.0,97,0.00,,,0.16,WeatherCatV1.14B232,2014-02-02 00:24:00,
2014-02-01 19:29:00,43.5,42.4,30.10,SSE,149,0.0,0.0,96,0.00,,,0.16,WeatherCatV1.14B232,2014-02-02 00:29:00,
2014-02-01 19:34:00,43.0,41.9,30.10,SSE,162,0.0,0.0,96,0.00,,,0.16,WeatherCatV1.14B232,2014-02-02 00:34:00,
2014-02-01 19:39:00,42.8,41.7,30.10,SSE,148,0.0,1.0,96,0.00,,,0.16,WeatherCatV1.14B232,2014-02-02 00:39:00,
2014-02-01 19:44:00,42.7,41.6,30.10,SSE,148,0.0,0.0,96,0.00,,,0.16,WeatherCatV1.14B232,2014-02-02 00:44:00,
2014-02-01 19:49:00,42.7,41.6,30.09,SSE,148,0.0,0.0,96,0.00,,,0.16,WeatherCatV1.14B232,2014-02-02 00:49:00,
2014-02-01 19:54:00,42.6,41.5,30.09,SSE,150,0.0,0.0,96,0.00,,,0.16,WeatherCatV1.14B232,2014-02-02 00:54:00,
2014-02-01 19:59:00,42.6,41.5,30.09,SSE,148,0.0,0.0,96,0.00,,,0.16,WeatherCatV1.14B232,2014-02-02 00:59:00,
2014-02-01 20:04:00,42.6,41.5,30.09,SSE,148,0.0,0.0,96,0.00,,,0.16,WeatherCatV1.14B232,2014-02-02 01:04:00,
2014-02-01 20:09:00,42.7,41.6,30.10,SSE,148,0.0,0.0,96,0.00,,,0.16,WeatherCatV1.14B232,2014-02-02 01:09:00,
2014-02-01 20:14:00,42.7,41.9,30.10,SSE,148,0.0,0.0,97,0.00,,,0.16,WeatherCatV1.14B232,2014-02-02 01:14:00,
2014-02-01 20:19:00,42.7,41.9,30.10,SSE,148,0.0,0.0,97,0.00,,,0.16,WeatherCatV1.14B232,2014-02-02 01:19:00,
2014-02-01 20:24:00,42.7,41.6,30.10,South,170,0.0,0.0,96,0.00,,,0.16,WeatherCatV1.14B232,2014-02-02 01:24:00,
2014-02-01 20:29:00,42.7,41.9,30.10,South,174,0.0,0.0,97,0.00,,,0.16,WeatherCatV1.14B232,2014-02-02 01:29:00,
2014-02-01 20:34:00,42.8,42.0,30.10,West,262,0.0,0.0,97,0.00,,,0.16,WeatherCatV1.14B232,2014-02-02 01:34:00,
2014-02-01 20:39:00,43.1,42.3,30.10,NW,320,1.0,2.0,97,0.00,,,0.16,WeatherCatV1.14B232,2014-02-02 01:39:00,
2014-02-01 20:44:00,43.3,42.5,30.10,NW,314,1.0,1.0,97,0.00,,,0.16,WeatherCatV1.14B232,2014-02-02 01:44:00,
2014-02-01 20:49:00,43.6,42.8,30.10,NW,326,1.0,2.0,97,0.00,,,0.16,WeatherCatV1.14B232,2014-02-02 01:49:00,
2014-02-01 20:54:00,43.8,43.0,30.10,NW,324,0.0,0.0,97,0.00,,,0.16,WeatherCatV1.14B232,2014-02-02 01:54:00,
2014-02-01 20:59:00,43.9,43.1,30.10,NW,323,0.0,0.0,97,0.00,,,0.16,WeatherCatV1.14B232,2014-02-02 01:59:00,
2014-02-01 21:04:00,43.9,43.1,30.10,NW,321,0.0,0.0,97,0.00,,,0.16,WeatherCatV1.14B232,2014-02-02 02:04:00,
2014-02-01 21:09:00,44.0,43.2,30.10,WNW,291,2.0,2.0,97,0.00,,,0.16,WeatherCatV1.14B232,2014-02-02 02:09:00,
2014-02-01 21:14:00,44.0,43.2,30.10,NW,320,1.0,1.0,97,0.00,,,0.16,WeatherCatV1.14B232,2014-02-02 02:14:00,
2014-02-01 21:19:00,44.0,43.2,30.10,NW,319,1.0,2.0,97,0.00,,,0.16,WeatherCatV1.14B232,2014-02-02 02:19:00,
2014-02-01 21:24:00,44.0,43.2,30.11,NW,313,2.0,3.0,97,0.00,,,0.16,WeatherCatV1.14B232,2014-02-02 02:24:00,
2014-02-01 21:29:00,43.9,43.1,30.11,WNW,292,3.0,3.0,97,0.00,,,0.16,WeatherCatV1.14B232,2014-02-02 02:29:00,
2014-02-01 21:34:00,43.9,43.1,30.10,NNW,338,2.0,3.0,97,0.00,,,0.16,WeatherCatV1.14B232,2014-02-02 02:34:00,
2014-02-01 21:39:00,43.8,43.0,30.10,NNW,330,1.0,4.0,97,0.00,,,0.16,WeatherCatV1.14B232,2014-02-02 02:39:00,
2014-02-01 21:44:00,43.7,42.9,30.11,NW,309,3.0,4.0,97,0.00,,,0.16,WeatherCatV1.14B232,2014-02-02 02:44:00,
2014-02-01 21:49:00,43.6,42.8,30.11,WNW,297,2.0,5.0,97,0.00,,,0.16,WeatherCatV1.14B232,2014-02-02 02:49:00,
2014-02-01 21:54:00,43.5,42.7,30.10,NNW,336,3.0,4.0,97,0.00,,,0.16,WeatherCatV1.14B232,2014-02-02 02:54:00,
2014-02-01 21:59:00,43.4,42.6,30.10,NW,304,2.0,4.0,97,0.00,,,0.16,WeatherCatV1.14B232,2014-02-02 02:59:00,
2014-02-01 22:04:00,43.3,42.5,30.10,NW,321,3.0,3.0,97,0.00,,,0.16,WeatherCatV1.14B232,2014-02-02 03:04:00,
2014-02-01 22:09:00,43.2,42.4,30.10,NW,312,2.0,3.0,97,0.00,,,0.16,WeatherCatV1.14B232,2014-02-02 03:09:00,
2014-02-01 22:14:00,43.2,42.4,30.10,NW,323,0.0,2.0,97,0.00,,,0.16,WeatherCatV1.14B232,2014-02-02 03:14:00,
2014-02-01 22:19:00,43.2,42.4,30.09,NW,323,0.0,0.0,97,0.00,,,0.16,WeatherCatV1.14B232,2014-02-02 03:19:00,
2014-02-01 22:24:00,43.2,42.4,30.09,NW,315,0.0,0.0,97,0.00,,,0.16,WeatherCatV1.14B232,2014-02-02 03:24:00,
2014-02-01 22:29:00,43.2,42.4,30.09,WNW,295,0.0,0.0,97,0.00,,,0.16,WeatherCatV1.14B232,2014-02-02 03:29:00,
2014-02-01 22:34:00,43.1,42.3,30.09,WNW,283,0.0,1.0,97,0.00,,,0.16,WeatherCatV1.14B232,2014-02-02 03:34:00,
2014-02-01 22:39:00,43.1,42.3,30.09,West,279,1.0,2.0,97,0.00,,,0.16,WeatherCatV1.14B232,2014-02-02 03:39:00,
2014-02-01 22:44:00,43.1,42.3,30.09,NW,315,2.0,2.0,97,0.00,,,0.16,WeatherCatV1.14B232,2014-02-02 03:44:00,
2014-02-01 22:49:00,43.1,42.3,30.09,West,271,0.0,1.0,97,0.00,,,0.16,WeatherCatV1.14B232,2014-02-02 03:49:00,
2014-02-01 22:54:00,43.1,42.3,30.09,NW,305,1.0,2.0,97,0.00,,,0.16,WeatherCatV1.14B232,2014-02-02 03:54:00,
2014-02-01 22:59:00,43.1,42.3,30.09,NW,304,1.0,4.0,97,0.00,,,0.16,WeatherCatV1.14B232,2014-02-02 03:59:00,
2014-02-01 23:04:00,43.0,42.2,30.09,WNW,301,0.0,2.0,97,0.00,,,0.16,WeatherCatV1.14B232,2014-02-02 04:04:00,
2014-02-01 23:09:00,43.0,42.2,30.09,NW,314,1.0,4.0,97,0.00,,,0.16,WeatherCatV1.14B232,2014-02-02 04:09:00,
2014-02-01 23:14:00,43.0,42.2,30.09,WNW,302,0.0,1.0,97,0.00,,,0.16,WeatherCatV1.14B232,2014-02-02 04:14:00,
2014-02-01 23:19:00,42.9,42.1,30.09,NW,323,0.0,2.0,97,0.00,,,0.16,WeatherCatV1.14B232,2014-02-02 04:19:00,
2014-02-01 23:24:00,42.9,42.4,30.09,WNW,298,0.0,1.0,98,0.00,,,0.16,WeatherCatV1.14B232,2014-02-02 04:24:00,
2014-02-01 23:29:00,42.9,42.4,30.09,WNW,290,0.0,0.0,98,0.00,,,0.16,WeatherCatV1.14B232,2014-02-02 04:29:00,
2014-02-01 23:34:00,42.9,42.4,30.09,SW,229,0.0,1.0,98,0.00,,,0.16,WeatherCatV1.14B232,2014-02-02 04:34:00,
2014-02-01 23:39:00,42.8,42.0,30.09,SW,224,0.0,1.0,97,0.00,,,0.16,WeatherCatV1.14B232,2014-02-02 04:39:00,
2014-02-01 23:44:00,42.8,42.3,30.09,West,269,0.0,1.0,98,0.00,,,0.16,WeatherCatV1.14B232,2014-02-02 04:44:00,
2014-02-01 23:49:00,42.7,42.2,30.09,WSW,245,0.0,1.0,98,0.00,,,0.16,WeatherCatV1.14B232,2014-02-02 04:49:00,
2014-02-01 23:54:00,42.7,42.2,30.09,WSW,245,0.0,0.0,98,0.00,,,0.16,WeatherCatV1.14B232,2014-02-02 04:54:00,
2014-02-01 23:59:00,42.7,42.2,30.09,WNW,282,0.0,0.0,98,0.00,,,0.16,WeatherCatV1.14B232,2014-02-02 04:59:00,